{"data":{"norad_id":52667,"epoch":"2026-05-25T02:22:46.661088Z","epoch_age_seconds":70441,"freshness":"FRESH","line1":"1 52667U 22053M   26145.09915117 -.00000743  00000+0 -28609-4 0  9993","line2":"2 52667  53.2130 171.1042 0001109  71.6596 288.4517 15.08836302222583","mean_motion":15.08836302,"eccentricity":0.0001109,"inclination_deg":53.213,"raan_deg":171.1042,"arg_perigee_deg":71.6596,"mean_anomaly_deg":288.4517,"bstar":-2.8609e-5,"rev_number":22258,"period_min":95.437788585232,"perigee_km":538.98749810511,"apogee_km":540.52188648246,"semimajor_km":6917.8916922938,"source":"CELESTRAK","updated_at":"2026-05-25T13:38:17.231545Z"}}